CST,Max TemperatureF,Mean TemperatureF,Min TemperatureF,Max Dew PointF,MeanDew PointF,Min DewpointF,Max Humidity, Mean Humidity, Min Humidity, Max Sea Level PressureIn, Mean Sea Level PressureIn, Min Sea Level PressureIn, Max VisibilityMiles, Mean VisibilityMiles, Min VisibilityMiles, Max Wind SpeedMPH, Mean Wind SpeedMPH, Max Gust SpeedMPH,PrecipitationIn, CloudCover, Events, WindDirDegrees
2013-1-1,17,12,6,5,2,0,80,67,52,30.27,30.21,30.14,10,10,10,12,8,,0.00,1,,291
2013-1-2,26,17,8,17,11,0,81,70,55,30.21,30.16,30.09,10,10,10,10,7,,0.00,5,,229
2013-1-3,30,26,21,20,18,11,81,73,51,30.25,30.16,30.05,10,7,4,15,11,23,0.00,6,,266
2013-1-4,30,26,23,19,14,6,75,61,48,30.22,30.16,30.09,10,10,10,21,13,31,0.00,0,,257
2013-1-5,36,27,18,32,26,16,96,86,70,30.26,30.07,29.90,10,7,2,16,8,26,0.04,5,Snow,221
2013-1-6,35,28,19,32,23,16,89,79,66,30.33,30.07,29.87,10,8,5,16,9,24,0.00,5,,271
2013-1-7,39,28,17,26,20,13,88,74,53,30.33,30.20,30.09,10,9,6,21,10,29,0.00,0,,213
2013-1-8,39,33,27,31,27,23,85,76,65,30.17,30.10,29.99,10,7,4,17,9,23,0.00,1,,204
2013-1-9,42,34,27,30,26,22,81,67,49,30.50,30.24,29.96,10,10,10,22,12,34,0.00,0,,258
2013-1-10,41,31,21,38,31,19,100,87,70,30.54,30.25,29.93,10,8,2,15,6,25,0.19,4,Rain,138
2013-1-11,52,45,39,46,43,37,100,95,80,29.92,29.75,29.67,10,5,0,16,10,25,0.22,7,Fog-Rain,186
2013-1-12,52,40,28,46,33,23,85,74,65,29.99,29.85,29.68,10,10,4,21,14,30,0.09,3,Snow,253
2013-1-13,28,22,14,25,17,5,93,81,65,30.24,30.02,29.90,10,8,2,14,8,22,0.09,8,Rain-Snow,302
2013-1-14,25,18,10,10,7,4,81,68,51,30.48,30.43,30.27,10,10,10,10,7,,0.00,0,,260
2013-1-15,30,22,15,14,11,9,80,65,45,30.46,30.36,30.16,10,10,10,7,5,,0.00,0,,241
2013-1-16,33,26,18,27,20,10,93,71,52,30.12,29.94,29.76,10,10,9,22,11,37,0.00,5,,248
2013-1-17,30,24,15,20,8,2,74,56,38,30.43,30.33,30.09,10,10,10,16,8,22,0.00,0,,301
2013-1-18,43,26,10,29,21,8,88,66,53,30.46,30.14,29.86,10,10,10,23,9,37,0.00,2,,212
2013-1-19,43,38,21,34,29,5,73,66,42,29.89,29.78,29.67,10,10,10,28,15,40,0.00,4,,244
2013-1-20,19,14,9,5,-2,-4,61,53,41,30.32,30.23,29.95,10,10,10,21,13,37,0.00,2,,293
2013-1-21,10,5,0,4,-5,-13,84,62,46,30.31,30.19,30.10,10,8,0,21,10,30,0.00,4,Fog-Snow,299
2013-1-22,8,1,-6,-5,-10,-16,75,59,48,30.41,30.36,30.27,10,10,4,15,9,21,0.00,1,Snow,289
2013-1-23,18,10,3,12,5,-5,85,71,56,30.39,30.22,30.08,10,7,2,18,9,28,0.00,7,Snow,276
2013-1-24,21,12,3,10,3,-6,74,65,53,30.67,30.55,30.41,10,9,2,16,10,23,0.00,4,Snow,319
2013-1-25,23,20,16,20,14,6,93,78,55,30.37,30.10,29.96,10,6,1,15,8,20,0.02,7,Snow,225
2013-1-26,26,17,8,18,8,3,80,65,43,30.43,30.37,30.22,10,10,9,9,6,,0.00,1,,269
2013-1-27,33,29,25,34,27,18,100,86,69,30.39,30.15,29.90,10,5,0,21,12,32,0.12,7,Fog-Rain-Snow-Thunderstorm,163
2013-1-28,43,36,30,43,36,30,100,94,77,29.99,29.88,29.78,10,5,0,14,7,21,0.05,7,Fog-Rain,212
2013-1-29,60,48,37,57,46,36,100,98,88,29.84,29.59,29.45,9,2,0,20,7,22,1.69,8,Fog-Rain-Thunderstorm,167
2013-1-30,36,28,18,36,28,11,100,90,74,29.60,29.35,29.23,10,5,1,18,16,29,0.27,8,Rain-Snow,349
2013-1-31,17,12,5,11,5,-4,79,68,54,30.14,29.82,29.63,10,9,1,20,14,31,0.00,7,Snow,288